This is the latest recevied weather packets stored in our database for station/object KA3BQE-13. If no packets are shown the sender has not sent any weather packets the latest 10 day(s).
| Time | Temp. | Humidity | Pressure | Rain* | Wind** | Luminosity | Snow |
|---|---|---|---|---|---|---|---|
| 1777568883 | 16.11° C | 44% | 1018.8 hPa | 0 mm | - | 943 W/m² | - |
| 1777568574 | 15.56° C | 44% | 1019 hPa | 0 mm | - | 842 W/m² | - |
| 1777568271 | 15.56° C | 44% | 1019 hPa | 0 mm | - | 811 W/m² | - |
| 1777567968 | 15.56° C | 47% | 1018.9 hPa | 0 mm | - | 806 W/m² | - |
| 1777567665 | 15° C | 44% | 1019.2 hPa | 0 mm | - | 788 W/m² | - |
| 1777567362 | 15.56° C | 41% | 1019 hPa | 0 mm | - | 790 W/m² | - |
| 1777567060 | 16.11° C | 47% | 1019 hPa | 0 mm | - | 788 W/m² | - |
| 1777566758 | 15° C | 49% | 1019.1 hPa | 0 mm | - | 781 W/m² | - |
| 1777566455 | 15° C | 43% | 1019.1 hPa | 0 mm | - | 774 W/m² | - |
| 1777566153 | 15° C | 46% | 1019 hPa | 0 mm | - | 762 W/m² | - |
| 1777565853 | 15° C | 47% | 1019.1 hPa | 0 mm | - | 759 W/m² | - |
| 1777565550 | 15° C | 47% | 1019.3 hPa | 0 mm | - | 761 W/m² | - |
| 1777565247 | 15° C | 47% | 1019.1 hPa | 0 mm | - | 749 W/m² | - |
| 1777564943 | 14.44° C | 40% | 1019.2 hPa | 0 mm | - | 707 W/m² | - |
| 1777564638 | 15° C | 42% | 1019.2 hPa | 0 mm | - | 714 W/m² | - |
| 1777564333 | 14.44° C | 45% | 1019.1 hPa | 0 mm | - | 711 W/m² | - |
| 1777564030 | 14.44° C | 45% | 1019.1 hPa | 0 mm | - | 701 W/m² | - |
| 1777563726 | 14.44° C | 48% | 1019.3 hPa | 0 mm | - | 693 W/m² | - |
| 1777563422 | 14.44° C | 49% | 1019.2 hPa | 0 mm | - | 682 W/m² | - |
| 1777563117 | 13.89° C | 45% | 1019.2 hPa | 0 mm | - | 669 W/m² | - |
| 1777562812 | 14.44° C | 45% | 1019.2 hPa | 0 mm | - | 659 W/m² | - |
| 1777562510 | 13.89° C | 48% | 1019.1 hPa | 0 mm | - | 641 W/m² | - |
| 1777562208 | 13.89° C | 46% | 1019.1 hPa | 0 mm | - | 635 W/m² | - |
| 1777561906 | 13.89° C | 50% | 1019.1 hPa | 0 mm | - | 618 W/m² | - |
| 1777561602 | 13.33° C | 52% | 1019.3 hPa | 0 mm | - | 601 W/m² | - |
* Rain latest hour (hover to see other rain measurements)
** Current wind speed in m/s (hover to see current wind gust speed)